{"data":{"norad_id":51898,"epoch":"2026-09-20T04:11:12.984576Z","epoch_age_seconds":84322,"freshness":"FRESH","line1":"1 51898U 22022AY  26263.17445584 -.00000124  00000+0  74828-5 0  9997","line2":"2 51898  53.1598 188.9082 0001328  86.1436 273.9718 15.34385493252890","mean_motion":15.34385493,"eccentricity":0.0001328,"inclination_deg":53.1598,"raan_deg":188.9082,"arg_perigee_deg":86.1436,"mean_anomaly_deg":273.9718,"bstar":7.4828e-6,"rev_number":25289,"period_min":93.848645374282,"perigee_km":461.83788909804,"apogee_km":463.65482771803,"semimajor_km":6840.883358408,"source":"CELESTRAK","updated_at":"2026-09-20T09:00:39.974800Z"}}